K5DLF-13 Weather Reports


time (UTC)temp
C
wind
direction
speed
KPH
gust
KPH
rain 1hr
cm
rain 24hr
cm
rain mn
cm
humidity
%
barometer
mb
20260510065946 23 95 0.0 1.6 0.00 0.00 0.00 93 1008.3
20260510065446 23 95 0.0 3.2 0.00 0.00 0.00 93 1008.2
20260510064946 23 95 0.0 0.0 0.00 0.00 0.00 93 1008.3
20260510064446 23 95 0.0 0.0 0.00 0.00 0.00 93 1008.3
20260510063946 23 95 1.6 4.8 0.00 0.00 0.00 93 1008.2
20260510063446 23 95 3.2 4.8 0.00 0.00 0.00 93 1008.4
20260510062946 23 95 3.2 4.8 0.00 0.00 0.00 93 1008.4
20260510062446 23 94 1.6 4.8 0.00 0.00 0.00 92 1008.5
20260510061946 23 94 1.6 4.8 0.00 0.00 0.00 92 1008.6
20260510061446 23 94 1.6 3.2 0.00 0.00 0.00 92 1008.6
20260510060946 23 94 0.0 4.8 0.00 0.00 0.00 92 1008.6
20260510060446 24 94 0.0 0.0 0.00 0.00 0.00 92 1008.5
20260510055946 24 94 0.0 0.0 0.00 0.00 0.00 92 1008.6
20260510055446 24 94 0.0 0.0 0.00 0.00 0.00 92 1008.7
20260510054946 24 94 0.0 0.0 0.00 0.00 0.00 91 1008.8
20260510054446 24 94 0.0 0.0 0.00 0.00 0.00 92 1008.8
20260510053946 24 94 0.0 0.0 0.00 0.00 0.00 91 1008.8
20260510053446 24 94 0.0 0.0 0.00 0.00 0.00 91 1008.9
20260510052946 24 94 0.0 0.0 0.00 0.00 0.00 91 1008.8
20260510052446 24 94 0.0 0.0 0.00 0.00 0.00 91 1008.8
20260510051946 25 94 0.0 0.0 0.00 0.00 0.00 91 1008.9
20260510051446 25 94 0.0 0.0 0.00 0.00 0.00 91 1009.0
20260510050946 25 94 1.6 0.0 0.00 0.00 0.00 91 1008.9
20260510050446 25 94 3.2 4.8 0.00 0.00 0.00 91 1009.0
20260510045946 25 94 3.2 6.4 0.00 0.00 0.00 91 1009.1
20260510045446 25 93 3.2 9.7 0.00 0.00 0.00 91 1009.1
20260510044946 25 76 3.2 6.4 0.00 0.00 0.00 91 1009.1
20260510044446 25 67 3.2 6.4 0.00 0.00 0.00 91 1009.1
20260510043946 25 46 3.2 4.8 0.00 0.00 0.00 91 1009.2
20260510043446 25 46 1.6 4.8 0.00 0.00 0.00 91 1009.1
20260510042946 25 45 0.0 4.8 0.00 0.00 0.00 91 1009.3
20260510042446 25 45 1.6 3.2 0.00 0.00 0.00 90 1009.3
20260510041946 25 45 1.6 3.2 0.00 0.00 0.00 90 1009.3
20260510041446 25 45 1.6 4.8 0.00 0.00 0.00 90 1009.3
20260510040946 25 45 3.2 6.4 0.00 0.00 0.00 90 1009.4
20260510040446 25 43 3.2 4.8 0.00 0.00 0.00 90 1009.4
20260510035946 25 43 3.2 4.8 0.00 0.00 0.00 90 1009.4
20260510035446 25 43 3.2 4.8 0.00 0.00 0.00 90 1009.2
20260510034946 25 43 1.6 6.4 0.00 0.00 0.00 90 1009.1
20260510034446 25 43 1.6 8.0 0.00 0.00 0.00 90 1009.0
20260510033946 25 40 1.6 3.2 0.00 0.00 0.00 90 1009.1
20260510033446 25 40 3.2 4.8 0.00 0.00 0.00 90 1009.2
20260510032946 25 40 3.2 4.8 0.00 0.00 0.00 90 1009.3
20260510032446 25 40 1.6 4.8 0.00 0.00 0.00 90 1009.5
20260510031946 25 40 1.6 4.8 0.00 0.00 0.00 90 1009.5
20260510031446 26 39 1.6 14.5 0.00 0.00 0.00 89 1009.3
20260510030946 26 172 0.0 8.0 0.00 0.00 0.00 89 1009.2
20260510030446 26 173 0.0 0.0 0.00 0.00 0.00 89 1009.1
20260510025946 26 175 1.6 3.2 0.00 0.00 0.00 88 1009.0
20260510025446 26 175 1.6 4.8 0.00 0.00 0.00 88 1009.0
20260510024946 26 175 1.6 3.2 0.00 0.00 0.00 88 1008.8
20260510024446 26 175 3.2 4.8 0.00 0.00 0.00 88 1008.7
20260510023946 26 184 1.6 6.4 0.00 0.00 0.00 88 1008.5
20260510023446 26 184 1.6 6.4 0.00 0.00 0.00 87 1008.4
20260510022946 26 185 0.0 3.2 0.00 0.00 0.00 86 1008.5
20260510022446 26 185 0.0 1.6 0.00 0.00 0.00 85 1008.3
20260510021946 26 185 0.0 0.0 0.00 0.00 0.00 84 1008.4
20260510021446 26 185 0.0 0.0 0.00 0.00 0.00 85 1008.1
20260510020946 26 185 0.0 0.0 0.00 0.00 0.00 85 1008.0
20260510020446 26 185 0.0 0.0 0.00 0.00 0.00 85 1007.8
20260510015947 26 185 0.0 0.0 0.00 0.00 0.00 85 1007.4
20260510015446 26 185 0.0 3.2 0.00 0.00 0.00 85 1007.2
20260510014946 26 185 0.0 1.6 0.00 0.00 0.00 85 1007.0
20260510014447 26 186 0.0 0.0 0.00 0.00 0.00 84 1007.1
20260510013947 26 186 0.0 0.0 0.00 0.00 0.00 84 1007.1
20260510013447 26 186 0.0 0.0 0.00 0.00 0.00 84 1007.1
20260510012947 26 186 0.0 0.0 0.00 0.00 0.00 83 1007.0
20260510012447 26 186 0.0 0.0 0.00 0.00 0.00 83 1006.9
20260510011947 26 186 0.0 0.0 0.00 0.00 0.00 82 1006.9
20260510011447 26 186 0.0 0.0 0.00 0.00 0.00 82 1006.5
20260510010947 26 186 0.0 3.2 0.00 0.00 0.00 81 1006.3
20260510010447 26 186 0.0 0.0 0.00 0.00 0.00 80 1006.0
20260510005947 27 186 0.0 0.0 0.00 0.00 0.00 79 1005.9
20260510005447 27 186 0.0 0.0 0.00 0.00 0.00 78 1005.9
20260510004947 27 186 0.0 0.0 0.00 0.00 0.00 77 1005.9
20260510004447 27 186 0.0 0.0 0.00 0.00 0.00 76 1006.1
20260510003947 28 186 1.6 0.0 0.00 0.00 0.00 75 1006.1
20260510003447 28 186 1.6 4.8 0.00 0.00 0.00 73 1006.1
20260510002947 28 186 1.6 4.8 0.00 0.00 0.00 72 1006.1
20260510002447 28 186 3.2 6.4 0.00 0.00 0.00 69 1006.2
20260510001947 28 190 1.6 6.4 0.00 0.00 0.00 66 1006.0
20260510001447 28 191 0.0 3.2 0.00 0.00 0.00 64 1005.9
20260510000947 29 191 1.6 4.8 0.00 0.00 0.00 63 1005.8
20260510000448 29 191 1.6 4.8 0.00 0.00 0.00 61 1005.8
20260509235947 30 191 0.0 3.2 0.00 0.00 0.00 60 1005.6
20260509235447 30 191 1.6 3.2 0.00 0.00 0.00 62 1005.5
20260509234947 30 191 1.6 4.8 0.00 0.00 0.00 58 1005.4
20260509234447 30 192 0.0 4.8 0.00 0.00 0.00 58 1005.5
20260509233947 30 194 1.6 0.0 0.00 0.00 0.00 61 1005.4
20260509233447 30 194 3.2 6.4 0.00 0.00 0.00 63 1005.4
20260509232947 30 198 1.6 6.4 0.00 0.00 0.00 66 1005.3
20260509232447 31 199 1.6 3.2 0.00 0.00 0.00 64 1005.4
20260509231947 31 199 0.0 4.8 0.00 0.00 0.00 60 1005.4
20260509231447 31 199 0.0 0.0 0.00 0.00 0.00 58 1005.4
20260509230947 31 199 0.0 4.8 0.00 0.00 0.00 62 1005.3
20260509230447 31 200 0.0 4.8 0.00 0.00 0.00 61 1005.2
20260509225947 32 200 0.0 0.0 0.00 0.00 0.00 59 1005.2
20260509225447 32 201 0.0 0.0 0.00 0.00 0.00 61 1005.1
20260509224947 32 201 0.0 0.0 0.00 0.00 0.00 62 1005.2
20260509224447 32 201 0.0 0.0 0.00 0.00 0.00 63 1005.2
20260509223947 32 201 0.0 0.0 0.00 0.00 0.00 60 1005.2
20260509223447 32 201 0.0 0.0 0.00 0.00 0.00 63 1005.2
20260509222947 32 201 0.0 0.0 0.00 0.00 0.00 62 1005.1
20260509222447 33 201 0.0 0.0 0.00 0.00 0.00 62 1005.2
20260509221947 33 201 0.0 0.0 0.00 0.00 0.00 61 1005.1
20260509221447 33 201 0.0 0.0 0.00 0.00 0.00 61 1005.1
20260509220947 33 201 0.0 1.6 0.00 0.00 0.00 60 1005.1
20260509220447 33 201 0.0 0.0 0.00 0.00 0.00 60 1005.0
20260509215947 34 201 1.6 6.4 0.00 0.00 0.00 58 1005.1
20260509215447 34 278 0.0 11.3 0.00 0.00 0.00 60 1005.0
20260509214947 34 217 0.0 0.0 0.00 0.00 0.00 59 1005.0
20260509214447 34 218 0.0 0.0 0.00 0.00 0.00 59 1005.1
20260509213947 34 217 0.0 0.0 0.00 0.00 0.00 60 1005.1
20260509213447 34 217 0.0 0.0 0.00 0.00 0.00 61 1004.9
20260509212947 34 218 0.0 0.0 0.00 0.00 0.00 60 1005.0
20260509212447 34 218 0.0 0.0 0.00 0.00 0.00 61 1005.0
20260509211947 34 218 0.0 0.0 0.00 0.00 0.00 63 1005.0
20260509211447 34 218 0.0 0.0 0.00 0.00 0.00 63 1005.0
20260509210947 34 218 0.0 0.0 0.00 0.00 0.00 60 1005.0
20260509210447 34 218 0.0 0.0 0.00 0.00 0.00 61 1005.1
20260509205947 34 218 0.0 0.0 0.00 0.00 0.00 62 1004.9
20260509205447 34 218 0.0 0.0 0.00 0.00 0.00 64 1005.0
20260509204947 34 218 0.0 0.0 0.00 0.00 0.00 62 1005.2
20260509204447 34 218 0.0 0.0 0.00 0.00 0.00 62 1005.2
20260509203947 34 218 0.0 0.0 0.00 0.00 0.00 60 1005.2
20260509203447 34 218 0.0 0.0 0.00 0.00 0.00 62 1005.3
20260509202947 34 218 0.0 0.0 0.00 0.00 0.00 60 1005.4
20260509202447 33 218 0.0 0.0 0.00 0.00 0.00 65 1005.5
20260509201947 33 218 0.0 0.0 0.00 0.00 0.00 65 1005.6
20260509201447 33 218 0.0 0.0 0.00 0.00 0.00 64 1005.6
20260509200947 33 218 0.0 1.6 0.00 0.00 0.00 66 1005.7
20260509200447 33 218 0.0 0.0 0.00 0.00 0.00 61 1005.8
20260509195947 33 218 0.0 0.0 0.00 0.00 0.00 63 1005.8
20260509195447 33 218 0.0 4.8 0.00 0.00 0.00 60 1005.9
20260509194947 34 217 0.0 0.0 0.00 0.00 0.00 62 1005.8
20260509194447 33 218 0.0 0.0 0.00 0.00 0.00 64 1005.9
20260509193947 33 217 0.0 0.0 0.00 0.00 0.00 65 1005.9
20260509193447 33 218 0.0 0.0 0.00 0.00 0.00 66 1005.7
20260509192947 33 307 0.0 0.0 0.00 0.00 0.00 66 1005.8
20260509192447 33 307 0.0 0.0 0.00 0.00 0.00 66 1006.0
20260509191947 33 307 0.0 4.8 0.00 0.00 0.00 60 1005.9
20260509191447 33 310 0.0 0.0 0.00 0.00 0.00 67 1006.1
20260509190947 33 310 0.0 0.0 0.00 0.00 0.00 66 1006.0
20260509190447 33 310 0.0 3.2 0.00 0.00 0.00 69 1006.0
20260509185947 32 310 0.0 0.0 0.00 0.00 0.00 70 1005.9
20260509185447 32 313 0.0 0.0 0.00 0.00 0.00 69 1006.1
20260509184947 32 313 0.0 0.0 0.00 0.00 0.00 72 1006.2
20260509184447 32 313 0.0 0.0 0.00 0.00 0.00 73 1006.3
20260509183947 31 312 0.0 0.0 0.00 0.00 0.00 72 1006.4
20260509183447 31 318 0.0 0.0 0.00 0.00 0.00 70 1006.5
20260509182947 31 20 0.0 0.0 0.00 0.00 0.00 73 1006.7
20260509182447 31 18 1.6 4.8 0.00 0.00 0.00 74 1006.7
20260509181947 30 22 1.6 8.0 0.00 0.00 0.00 73 1006.7
20260509181447 30 21 1.6 8.0 0.00 0.00 0.00 76 1006.9
20260509180947 30 348 0.0 6.4 0.00 0.00 0.00 78 1006.9
20260509180447 29 279 1.6 6.4 0.00 0.00 0.00 77 1007.3
20260509175947 29 279 1.6 6.4 0.00 0.00 0.00 77 1007.3
20260509175447 29 273 0.0 0.0 0.00 0.00 0.00 81 1007.3
20260509174947 28 272 1.6 4.8 0.00 0.00 0.00 80 1007.4
20260509174447 28 272 1.6 9.7 0.00 0.00 0.00 81 1007.6
20260509173947 28 205 0.0 0.0 0.00 0.00 0.00 84 1007.5
20260509173447 28 205 0.0 0.0 0.00 0.00 0.00 82 1007.5
20260509172947 28 205 0.0 6.4 0.00 0.00 0.00 82 1007.5
20260509172447 28 205 0.0 4.8 0.00 0.00 0.00 83 1007.7
20260509171947 28 205 0.0 4.8 0.00 0.00 0.00 84 1007.7
20260509171447 28 205 0.0 4.8 0.00 0.00 0.00 85 1007.8
20260509170947 28 205 0.0 4.8 0.00 0.00 0.00 85 1007.6
20260509170447 28 205 0.0 0.0 0.00 0.00 0.00 86 1007.8
20260509165947 27 205 1.6 3.2 0.00 0.00 0.00 87 1007.8
20260509165447 27 205 1.6 8.0 0.00 0.00 0.00 86 1007.8
20260509164947 27 204 1.6 9.7 0.00 0.00 0.00 87 1007.8
20260509164447 27 217 1.6 3.2 0.00 0.00 0.00 88 1007.8
20260509163947 27 217 1.6 8.0 0.00 0.00 0.00 88 1008.1
20260509163447 27 219 1.6 6.4 0.00 0.00 0.00 88 1008.1
20260509162947 27 234 0.0 0.0 0.00 0.00 0.00 89 1007.8
20260509162447 27 234 0.0 0.0 0.00 0.00 0.00 89 1007.9
20260509161947 27 234 0.0 0.0 0.00 0.00 0.00 90 1007.9
20260509161447 27 234 0.0 0.0 0.00 0.00 0.00 91 1007.9
20260509160947 27 234 0.0 0.0 0.00 0.00 0.00 92 1007.7
20260509160447 27 234 0.0 0.0 0.00 0.00 0.00 93 1007.6
20260509155947 27 234 0.0 0.0 0.00 0.00 0.00 94 1007.3
20260509155447 26 234 0.0 0.0 0.00 0.00 0.00 94 1007.7
20260509154948 26 234 0.0 0.0 0.00 0.00 0.00 94 1007.5
20260509154447 26 234 0.0 0.0 0.00 0.00 0.00 94 1007.4
20260509153948 26 234 0.0 0.0 0.00 0.00 0.00 95 1007.6
20260509153448 26 234 0.0 3.2 0.00 0.00 0.00 94 1007.4
20260509152948 25 234 0.0 3.2 0.00 0.00 0.00 95 1007.1
20260509152448 25 238 0.0 0.0 0.00 0.00 0.00 95 1007.3
20260509151948 25 238 0.0 0.0 0.00 0.00 0.00 95 1007.7
20260509151448 25 238 0.0 0.0 0.00 0.00 0.00 95 1007.8
20260509150948 25 238 0.0 0.0 0.00 0.00 0.00 95 1007.6
20260509150448 25 238 0.0 0.0 0.00 0.00 0.00 95 1007.1
20260509145948 25 242 0.0 0.0 0.00 0.00 0.00 95 1007.3
20260509145448 25 242 0.0 0.0 0.00 0.00 0.00 95 1007.8
20260509144948 25 242 0.0 0.0 0.00 0.00 0.00 95 1007.7
20260509144448 25 242 0.0 0.0 0.00 0.00 0.00 96 1007.3
20260509143948 25 242 0.0 0.0 0.00 0.00 0.00 96 1007.5
20260509143448 25 242 0.0 0.0 0.00 0.00 0.00 96 1007.6
20260509142948 25 242 0.0 0.0 0.00 0.00 0.00 96 1007.9
20260509142448 25 242 0.0 0.0 0.00 0.00 0.00 96 1008.0
20260509141948 25 242 0.0 0.0 0.00 0.00 0.00 96 1008.0
20260509141448 25 242 0.0 0.0 0.00 0.00 0.00 97 1007.9
20260509140948 25 242 0.0 0.0 0.00 0.00 0.00 97 1007.5
20260509140448 25 242 0.0 0.0 0.00 0.00 0.00 97 1007.5
20260509135948 25 344 0.0 0.0 0.00 0.00 0.00 97 1007.8
20260509135448 25 344 0.0 0.0 0.00 0.00 0.00 96 1007.9
20260509134948 25 344 0.0 0.0 0.00 0.00 0.00 96 1007.7
20260509134448 25 40 0.0 0.0 0.00 0.00 0.00 97 1007.3
20260509133948 25 40 0.0 0.0 0.00 0.00 0.00 97 1007.4
20260509133448 25 40 0.0 0.0 0.00 0.00 0.00 97 1007.4
20260509132948 25 40 0.0 0.0 0.00 0.00 0.00 97 1007.7
20260509132448 25 40 0.0 0.0 0.00 0.00 0.00 97 1007.8
20260509131948 25 40 0.0 0.0 0.00 0.00 0.00 97 1007.9
20260509131448 25 40 0.0 0.0 0.00 0.00 0.00 97 1007.7
20260509130948 25 40 0.0 0.0 0.00 0.00 0.00 97 1007.6
20260509130448 24 40 0.0 0.0 0.00 0.00 0.00 97 1007.7
20260509125948 24 40 0.0 0.0 0.00 0.00 0.00 97 1007.7
20260509125448 24 40 0.0 0.0 0.00 0.00 0.00 97 1007.7
20260509124948 24 40 0.0 0.0 0.00 0.00 0.00 96 1007.8
20260509124448 24 40 0.0 0.0 0.00 0.00 0.00 96 1007.8
20260509123948 24 40 0.0 0.0 0.00 0.00 0.00 96 1007.7
20260509123448 24 40 0.0 0.0 0.00 0.00 0.00 96 1007.7
20260509122948 23 40 0.0 0.0 0.00 0.00 0.00 96 1007.7
20260509122448 23 40 0.0 0.0 0.00 0.00 0.00 96 1007.6
20260509121948 23 40 0.0 0.0 0.00 0.00 0.00 96 1007.6
20260509121448 23 40 0.0 0.0 0.00 0.00 0.00 96 1007.7
20260509120948 23 40 0.0 0.0 0.00 0.00 0.00 96 1007.7
20260509120448 23 40 0.0 0.0 0.00 0.00 0.00 96 1007.7
20260509115948 23 40 0.0 0.0 0.00 0.00 0.00 96 1007.7
20260509115448 23 40 0.0 0.0 0.00 0.00 0.00 96 1007.6
20260509114948 23 40 0.0 0.0 0.00 0.00 0.00 96 1007.6
20260509114448 23 40 0.0 0.0 0.00 0.00 0.00 96 1007.6
20260509113948 23 40 0.0 0.0 0.00 0.00 0.00 96 1007.6
20260509113448 23 40 0.0 0.0 0.00 0.00 0.00 96 1007.6
20260509112948 23 40 0.0 0.0 0.00 0.00 0.00 96 1007.5
20260509112448 23 40 0.0 0.0 0.00 0.00 0.00 96 1007.3
20260509111948 23 40 0.0 0.0 0.00 0.00 0.00 96 1007.4
20260509111448 23 40 0.0 0.0 0.00 0.00 0.00 96 1007.4
20260509110948 23 40 0.0 0.0 0.00 0.00 0.00 96 1007.5
20260509110448 23 40 0.0 0.0 0.00 0.00 0.00 96 1007.4
20260509105948 23 40 0.0 0.0 0.00 0.00 0.00 96 1007.1
20260509105448 23 40 0.0 0.0 0.00 0.00 0.00 96 1006.9
20260509104948 23 40 0.0 0.0 0.00 0.00 0.00 96 1007.0
20260509104448 23 40 0.0 0.0 0.00 0.00 0.00 96 1006.9
20260509103948 23 40 0.0 0.0 0.00 0.00 0.00 96 1006.9
20260509103448 23 40 0.0 0.0 0.00 0.00 0.00 96 1006.9
20260509102948 23 40 0.0 0.0 0.00 0.00 0.00 96 1006.9
20260509102448 23 40 0.0 0.0 0.00 0.00 0.00 96 1007.1
20260509101948 23 40 0.0 0.0 0.00 0.00 0.00 96 1007.2
20260509101448 23 40 0.0 0.0 0.00 0.00 0.00 96 1006.8
20260509100948 23 40 0.0 0.0 0.00 0.00 0.00 96 1006.9
20260509100448 23 40 0.0 0.0 0.00 0.00 0.00 96 1007.0
20260509095948 23 40 0.0 0.0 0.00 0.00 0.00 96 1006.9
20260509095448 23 40 0.0 0.0 0.00 0.00 0.00 96 1006.8
20260509094948 23 40 0.0 0.0 0.00 0.00 0.00 96 1006.9
20260509094448 23 40 0.0 0.0 0.00 0.00 0.00 96 1006.7
20260509093948 23 40 0.0 0.0 0.00 0.00 0.00 96 1006.7
20260509093448 23 40 0.0 0.0 0.00 0.00 0.00 96 1006.8
20260509092948 23 40 0.0 0.0 0.00 0.00 0.00 96 1006.7
20260509092448 23 40 0.0 0.0 0.00 0.00 0.00 96 1006.4
20260509091948 23 40 0.0 0.0 0.00 0.00 0.00 96 1006.5
20260509091448 23 40 0.0 0.0 0.00 0.00 0.00 96 1006.4
20260509090948 23 40 0.0 0.0 0.00 0.00 0.00 96 1006.5
20260509090448 23 40 0.0 0.0 0.00 0.00 0.00 96 1006.5
20260509085948 23 40 0.0 0.0 0.00 0.00 0.00 96 1006.2
20260509085448 23 40 0.0 0.0 0.00 0.00 0.00 96 1006.2
20260509084948 23 40 0.0 0.0 0.00 0.00 0.00 96 1006.3
20260509084448 23 40 0.0 0.0 0.00 0.00 0.00 95 1006.4
20260509083948 22 40 0.0 0.0 0.00 0.00 0.00 95 1006.4
20260509083448 22 40 0.0 0.0 0.00 0.00 0.00 95 1006.4
20260509082948 22 40 0.0 0.0 0.00 0.00 0.00 95 1006.5
20260509082448 22 40 0.0 0.0 0.00 0.00 0.00 95 1006.7
20260509081948 22 40 0.0 0.0 0.00 0.00 0.00 95 1006.7
20260509081448 23 40 0.0 0.0 0.00 0.00 0.00 95 1006.8
20260509080948 22 40 0.0 0.0 0.00 0.00 0.00 95 1006.8
20260509080448 23 40 0.0 0.0 0.00 0.00 0.00 95 1006.8
20260509075948 23 40 0.0 0.0 0.00 0.00 0.00 95 1006.9
20260509075448 23 40 0.0 0.0 0.00 0.00 0.00 94 1007.0
20260509074948 23 40 0.0 0.0 0.00 0.00 0.00 94 1007.0
20260509074448 23 40 0.0 0.0 0.00 0.00 0.00 94 1007.1
20260509073948 23 40 0.0 0.0 0.00 0.00 0.00 94 1007.0
20260509073448 23 40 0.0 0.0 0.00 0.00 0.00 94 1007.1
20260509072948 23 40 0.0 0.0 0.00 0.00 0.00 95 1007.1
20260509072448 23 40 0.0 0.0 0.00 0.00 0.00 95 1007.2
20260509071948 23 40 0.0 0.0 0.00 0.00 0.00 95 1007.4
20260509071448 23 40 0.0 0.0 0.00 0.00 0.00 94 1007.3
20260509070948 23 40 0.0 0.0 0.00 0.00 0.00 94 1007.2
20260509070448 23 40 0.0 0.0 0.00 0.00 0.00 94 1007.1